Location: Newark
(45.9456°N, 15.4064°E)
Time: 02:05:39
(UTC+00:00)

Vanguard 3 - Pass Details

Date: 24 January 2020
Orbit: 508 x 3263 km, 33.3° (Epoch: 25 February)

Event Time Altitude Azimuth Distance (km) Brightness Sun altitude
Rises 19:22:27 0° 260° (W) 7,221 12.8 -36.4°
Reaches altitude 10° 19:27:43 10° 256° (WSW) 6,104 12.2 -37.3°
Maximum altitude 19:44:57 49° 190° (S) 3,010 9.8 -40.3°
Enters shadow 19:46:19 48° 176° (S) 2,947 9.6 -40.5°
Drops below altitude 10° 19:56:09 10° 120° (ESE) 4,081 - -42.1°
Sets 19:58:56 0° 114° (ESE) 4,753 - -42.6°
